Powrót do katalogu

SL-14 DEB

AktywnyPO
NORAD 26013·DEBRIS·🇷🇺 Russia

Wystrzelony Sep 28, 1991 z Plesetsk Cosmodrome

Loading…

Następne Przeloty (najbliższe 24 godziny)

TLE

ŚwieżeSource: Space-Track

Epoka: Sep 14, 2026, 04:05 UTC

1 26013U 91068Y   26257.17081565  .00000052  00000-0  25298-3 0  9997
2 26013  82.7144 137.3683 0020444 153.5702   3.9405 12.55613154233303

Śledź SL-14 DEB w czasie rzeczywistym z AllMySat

Download on the App Store